Address 0xa49bb5a9bace03fd602c50304bdcf0efd3977d97 5

 
Txn Hash
Block
From
To
Value [Txn Fee]
0x29b35a226776755dd56bf620232bba5a65f80b7aa9bd599ebd4ca47a340e035e63945372021-04-08 19:32:27113 days 52 mins ago0xa49bb5a9bace03fd602c50304bdcf0efd3977d97OUT 0x5c4e018b8fb5959a9553fde6da3d2591d215704e0 BNB0.000133686
0xc2a452ff3eecdd68f588d8dab58de5d4330ea060055fc23912e0d81e23eeee1963945092021-04-08 19:31:03113 days 54 mins ago0xa49bb5a9bace03fd602c50304bdcf0efd3977d97OUT 0x5c4e018b8fb5959a9553fde6da3d2591d215704e0 BNB0.000133686
0xc73dd88c08c00f82ff8dce869786962ab3266083eab55b6b26e1aaeb209a573d63938832021-04-08 18:57:04113 days 1 hr ago0xa49bb5a9bace03fd602c50304bdcf0efd3977d97OUT 0x5c4e018b8fb5959a9553fde6da3d2591d215704e0 BNB0.000230925
0x90e35a48ce48734ac621079dafd7cab66d2d047feb68b14535e419abdee2bfec63938792021-04-08 18:56:52113 days 1 hr ago0xa49bb5a9bace03fd602c50304bdcf0efd3977d97OUT 0x5c4e018b8fb5959a9553fde6da3d2591d215704e0 BNB0.000230925
0x6b39ead795c01dd1598ae08ce72d289b6e1f29c9d9f68f010a5439d4f55bb17663938762021-04-08 18:56:40113 days 1 hr ago0xa49bb5a9bace03fd602c50304bdcf0efd3977d97OUT 0x5c4e018b8fb5959a9553fde6da3d2591d215704e0 BNB0.000244655
0x68766237c36cb0ada3b5d58583ce86702165052f68bc321e063125a89b5055e263938752021-04-08 18:56:36113 days 1 hr ago0xa49bb5a9bace03fd602c50304bdcf0efd3977d97OUT 0x5c4e018b8fb5959a9553fde6da3d2591d215704e0 BNB0.000230925
0xfe62f53ad4f3a2ad8171c8cebb9dae1e78de45c1d692e3de19e3630448f32d8b63938732021-04-08 18:56:30113 days 1 hr ago0xa49bb5a9bace03fd602c50304bdcf0efd3977d97OUT 0x5c4e018b8fb5959a9553fde6da3d2591d215704e0 BNB0.000230925
0xe4f451e3921fc3e35ec3ecb6db3ca81131e28561dc5158a6d4a1d77b6fe9918b63938712021-04-08 18:56:18113 days 1 hr ago0xa49bb5a9bace03fd602c50304bdcf0efd3977d97OUT 0x5c4e018b8fb5959a9553fde6da3d2591d215704e0 BNB0.000230925
0x4e0fb263b42c13560a932b3e75f41f2130d5b14c9b000ca93cb5bde15eedce8a63938692021-04-08 18:56:09113 days 1 hr ago0xa49bb5a9bace03fd602c50304bdcf0efd3977d97OUT 0x5c4e018b8fb5959a9553fde6da3d2591d215704e0 BNB0.000230865
0xe18f96f900030d4c9ca76e413844cf889e3060ecb77b5577217ee273ec02782263938672021-04-08 18:56:02113 days 1 hr ago0xa49bb5a9bace03fd602c50304bdcf0efd3977d97OUT 0x5c4e018b8fb5959a9553fde6da3d2591d215704e0 BNB0.000230215
0xd37f9f0e86881551a79dd96fee60d8e2098219d3c216bc8663d45aef4a6e612563938652021-04-08 18:55:53113 days 1 hr ago0xa49bb5a9bace03fd602c50304bdcf0efd3977d97OUT 0x5c4e018b8fb5959a9553fde6da3d2591d215704e0 BNB0.000244655
0xd5893cc34bc6629cfbbb556f3590f5a0cf905ba798d96e8fc348367fc486466b63938632021-04-08 18:55:45113 days 1 hr ago0xa49bb5a9bace03fd602c50304bdcf0efd3977d97OUT 0x5c4e018b8fb5959a9553fde6da3d2591d215704e0 BNB0.000230925
0xb1ec1be52f1b4a1fe3ff52f71fe375510513f39de45be043e306fd3a31fd337d63938612021-04-08 18:55:39113 days 1 hr ago0xa49bb5a9bace03fd602c50304bdcf0efd3977d97OUT 0x5c4e018b8fb5959a9553fde6da3d2591d215704e0 BNB0.000230925
0x7126e5260c094017e73730b3e774c981af94885383c540aa0f470f1b3362ee0c63937852021-04-08 18:51:20113 days 1 hr ago0xa49bb5a9bace03fd602c50304bdcf0efd3977d97OUT 0xbb6d2360067e5b7f14a1bc85fa3571037fb5d0e60 BNB0.000230575
0x60a30e17dab809eada709e4a4bcc8de32ecc6552f91b61cb5625f39f21a82eeb63937832021-04-08 18:51:14113 days 1 hr ago0xa49bb5a9bace03fd602c50304bdcf0efd3977d97OUT 0xbb6d2360067e5b7f14a1bc85fa3571037fb5d0e60 BNB0.000229865
0xb4afe21a6228fb091f960ae2748d5169d5550bbcba3b1bf209f47f3ebf71c82163937802021-04-08 18:51:05113 days 1 hr ago0xa49bb5a9bace03fd602c50304bdcf0efd3977d97OUT 0xbb6d2360067e5b7f14a1bc85fa3571037fb5d0e60 BNB0.000244305
0xb5168ec4dbd629c79d8167875a0c57de83661f95ddf5f71262350812fb9f99a263937782021-04-08 18:50:59113 days 1 hr ago0xa49bb5a9bace03fd602c50304bdcf0efd3977d97OUT 0xbb6d2360067e5b7f14a1bc85fa3571037fb5d0e60 BNB0.000230575
0x561e1d880a3156e811108df90facd1346e39dcb0c7f76c8c24f5479a32ef269063937752021-04-08 18:50:50113 days 1 hr ago0xa49bb5a9bace03fd602c50304bdcf0efd3977d97OUT 0xbb6d2360067e5b7f14a1bc85fa3571037fb5d0e60 BNB0.000230575
0x660482d684f5359b6026372ae080f4362ae5e0b496689d1bd3a280e777e9135a63937732021-04-08 18:50:44113 days 1 hr ago0xa49bb5a9bace03fd602c50304bdcf0efd3977d97OUT 0xbb6d2360067e5b7f14a1bc85fa3571037fb5d0e60 BNB0.000230575
0xa5c699b6e3c2dc5dd4f2661b5f1326f54982d0863b64769ee37b5dd2fd629dc263937712021-04-08 18:50:38113 days 1 hr ago0xa49bb5a9bace03fd602c50304bdcf0efd3977d97OUT 0xbb6d2360067e5b7f14a1bc85fa3571037fb5d0e60 BNB0.000244305
0xc5aa1912f39070e22e2cc44d38dad46c03afb6480f0226689cbe2b9c6840b4ee63937692021-04-08 18:50:32113 days 1 hr ago0xa49bb5a9bace03fd602c50304bdcf0efd3977d97OUT 0xbb6d2360067e5b7f14a1bc85fa3571037fb5d0e60 BNB0.000230575
0xde06d4e695ac6a0380f60339fad15a9b0e853389a55b773be0d62c0a038b6fc863937642021-04-08 18:50:17113 days 1 hr ago0xa49bb5a9bace03fd602c50304bdcf0efd3977d97OUT 0xbb6d2360067e5b7f14a1bc85fa3571037fb5d0e60 BNB0.000230515
0x5951f73be183522f689683f16322c2ce09e17f3380b8128e6391e0315e979f4363937622021-04-08 18:50:11113 days 1 hr ago0xa49bb5a9bace03fd602c50304bdcf0efd3977d97OUT 0xbb6d2360067e5b7f14a1bc85fa3571037fb5d0e60 BNB0.000230575
0x78890922ec1d4cc211765b33322aae1964cb7be24e60e4d5415a623a3749414563937602021-04-08 18:50:05113 days 1 hr ago0xa49bb5a9bace03fd602c50304bdcf0efd3977d97OUT 0xbb6d2360067e5b7f14a1bc85fa3571037fb5d0e60 BNB0.000230575
0x863b8dd014964106ba231a4cb0e04e3f152e5a7383a181a8a3124961f66151f455332142021-03-09 15:35:07143 days 4 hrs ago0xa49bb5a9bace03fd602c50304bdcf0efd3977d97OUT 0x5fa296cca27a14d26aca6fd7c7e5db6294f166130 BNB0.0015736
[ Download CSV Export 
Latest 3 internal transactions
Parent Txn Hash Block From To Value
0x75faf443ca46051055619adfd29fc3b2a6bb2e4a65a1bf958bef056c706afd9b47569892021-02-10 11:21:10170 days 9 hrs ago 0xbf6527834dbb89cdc97a79fcd62e6c08b19f8ec00xa49bb5a9bace03fd602c50304bdcf0efd3977d970.150187631017062311 BNB
0xeeaeb2421773cc78f713e4c8ff9f28756769b71487ac7ff73fa772ea4060076d44754282021-01-31 15:23:12180 days 5 hrs ago PancakeSwap: Router0xa49bb5a9bace03fd602c50304bdcf0efd3977d970.02647684791336132 BNB
0x2ef0ee7d9c5f826579948daa8b3d40de5188007a9ef10a94453d8381bb7a95c744753822021-01-31 15:20:54180 days 5 hrs ago PancakeSwap: Router0xa49bb5a9bace03fd602c50304bdcf0efd3977d970.110761002498284314 BNB
[ Download CSV Export 
Loading

Contract Name:
0 BNB

Compiler Version
0

Optimization Enabled:
0 BNB

Other Settings:
-NA-
Block Transaction Gas Used Reward
Age Block Fee Address BC Fee Address Voting Power Jailed Incoming
Block Uncle Number Difficulty Gas Used Reward
Loading
Loading
Make sure to use the "Vote Down" button for any spammy posts, and the "Vote Up" for interesting conversations.